Regional Weather Roundup
Issued by NWS

Home | Current Version | Previous Version | Text Only | Print | Product List | Glossary Off
Versions: 1 2 3 4 5 6 7 8 9 10 11 12 13 14 15 16 17 18 19 20 21 22 23 24 25 26 27 28 29 30 31 32 33 34 35 36 37 38 39 40 41 42 43 44 45 46 47 48 49 50

000
ASUS43 KLOT 011210
RWRIL

ILLINOIS REGIONAL WEATHER ROUNDUP
NATIONAL WEATHER SERVICE CHICAGO/ROMEOVILLE IL
600 AM CST SUN MAR 01 2015

NOTE: "FAIR" INDICATES FEW OR NO CLOUDS BELOW 12,000 FEET WITH NO
SIGNIFICANT WEATHER AND/OR OBSTRUCTIONS TO VISIBILITY.

* THESE STATIONS ARE NOT UNDER NWS QUALITY CONTROL. THEY ALSO MAY NOT
  REPORT WEATHER SUCH AS PRECIPITATION OR FOG.

ILZ001-002-007-009-015-016-024-011300-
NORTHWEST ILLINOIS

CITY           SKY/WX    TMP DP  RH WIND       PRES   REMARKS
MOLINE         FOG       11   8  88 CALM      30.38R VSB 3/4
6HR MIN TEMP:   2; 6HR MAX TEMP:  11;

STERLING*      CLOUDY   N/A N/A N/A CALM      30.36F
SAVANNA*       CLOUDY    14  11  87 CALM      30.37F
$$

ILZ003-004-008-010-011-017-018-011300-
NORTH CENTRAL ILLINOIS

CITY           SKY/WX    TMP DP  RH WIND       PRES   REMARKS
ROCKFORD       LGT SNOW  14  11  87 CALM      30.38F FOG
6HR MIN TEMP:   9; 6HR MAX TEMP:  14; 6HR PCP: TRACE;

FREEPORT*      LGT SNOW  11   9  89 CALM      30.37F
ROCHELLE*      FOG        6   3  88 CALM      30.37F VSB 1/4
DE KALB*       FOG       10   8  89 CALM      30.36F VSB<1/4
PERU*          MOCLDY    14  12  90 NE3       30.38F FOG
$$

ILZ005-006-012>014-019>023-011300-
NORTHEAST ILLINOIS

CITY           SKY/WX    TMP DP  RH WIND       PRES   REMARKS
CHICAGO-OHARE  CLOUDY    12   9  87 W3        30.38S FOG
6HR MIN TEMP:  10; 6HR MAX TEMP:  18; 6HR PCP:  0.02;

CHICAGO-MIDWAY CLOUDY    19  14  81 CALM      30.39S
6HR MIN TEMP:  18; 6HR MAX TEMP:  21; 6HR PCP: TRACE;

AURORA         FOG        7   4  87 CALM      30.38S VSB<1/4
6HR MIN TEMP:   4; 6HR MAX TEMP:  19;

LANSING*       CLOUDY    17  16  94 CALM      30.40R
JOLIET*        CLOUDY    14  12  93 CALM      30.39S FOG
WAUKEGAN       CLOUDY    12   9  87 CALM      30.37F FOG
6HR MIN TEMP:   3; 6HR MAX TEMP:  18;

DUPAGE AIRPORT CLOUDY    12   9  87 CALM      30.36F FOG
6HR MIN TEMP:  11; 6HR MAX TEMP:  18;

KANKAKEE*      CLOUDY    20  18  91 CALM      30.39S FOG
WHEELING       CLOUDY    12   9  87 CALM      30.40S FOG
6HR MIN TEMP:   9; 6HR MAX TEMP:  18;

MORRIS*        CLOUDY    14  13  95 NE3       30.37F FOG
ROMEOVILLE*    CLOUDY    17  15  93 CALM      30.38S FOG
NORTHERLY ISL    N/A     20  16  84 W1          N/A
$$

LMZ740>746-011300-
SOUTHERN LAKE MICHIGAN

STATION/POSITION SKY/WX   TEMP    WIND        PRES    VSBY  WAVE
                          AIR SEA DIR/SP/G                  HT/PER
                          (F)     (DEG/KT/KT) (MB)    (MI)  (FT/S)
WAUKEGAN HARBOR            16     290/ 13/ 17   N/A
HARRISON CRIB              20     290/  4/  5   N/A
BURNHAM HARBOR             20      CALM  /  2   N/A
CALUMET HARBOR             18     180/  2/  2 1027.9R
MICHIGAN CITY              17     110/  3/  3   N/A
$$

ILZ025>027-034>036-040-047-049-050-058-095>099-011300-
WEST-CENTRAL ILLINOIS

CITY           SKY/WX    TMP DP  RH WIND       PRES   REMARKS
QUINCY         LGT SNOW  21  18  88 CALM      30.37R FOG
GALESBURG*     CLOUDY    19  18  95 CALM      30.36S
MACOMB*        LGT RAIN  20  19  96 CALM      30.39R
JACKSONVILLE*  LGT SNOW  24  21  90 CALM      30.38R
PITTSFIELD*    LGT RAIN  23  20  91 CALM      30.38R
$$

ILZ028>032-037-038-041>044-048-051>054-059>061-011300-
CENTRAL ILLINOIS

CITY           SKY/WX    TMP DP  RH WIND       PRES   REMARKS
PONTIAC        LGT SNOW  21  19  93 CALM      30.38F
BLOOMINGTON    LGT SNOW  21  20  96 CALM      30.37S FOG
DECATUR        LGT SNOW  22  20  92 E3        30.37S FOG
PEORIA         LGT SNOW  22  18  85 CALM      30.37F FOG
6HR MIN TEMP:  21; 6HR MAX TEMP:  22; 6HR PCP:  0.01;

LACON*         CLOUDY    18  16  90 CALM      30.38S
LINCOLN*       LGT SNOW  23  21  92 CALM      30.40S
SPRINGFIELD    LGT SNOW  23  20  88 CALM      30.38R VSB 1
6HR MIN TEMP:  22; 6HR MAX TEMP:  23; 6HR PCP:  0.16;

TAYLORVILLE    LGT SNOW  23  21  93 CALM      30.36F
$$

ILZ033-039-045-046-055>057-062-063-011300-
EAST-CENTRAL ILLINOIS

CITY           SKY/WX    TMP DP  RH WIND       PRES   REMARKS
CHAMPAIGN      SNOW      22  19  89 E5        30.37R VSB 1/2 WCI  16
DANVILLE*      LGT SNOW  21  19  93 CALM      30.35S
RANTOUL*       LGT SNOW  23  21  93 CALM      30.37S VSB 1
MATTOON        LGT SNOW  25  22  88 CALM      30.36S FOG
PARIS*         LGT SNOW  24  23  96 CALM      30.38S
$$

ILZ079-100>102-011300-
SOUTHWEST ILLINOIS

CITY           SKY/WX    TMP DP  RH WIND       PRES   REMARKS
BELLEVILLE     FRZ RAIN  27  25  93 NE1       30.37S FOG
CAHOKIA*       FRZ RAIN  27  26  96 CALM      30.38R FOG
SPARTA*        MIX PCPN  27  27  97 CALM      30.38R
$$

ILZ064>066-069>071-074>076-080>082-084>086-088>090-092>094-011300-
SOUTH-CENTRAL ILLINOIS

CITY           SKY/WX    TMP DP  RH WIND       PRES   REMARKS
CARBONDALE     FRZ RAIN  31  28  89 N3        30.38R FOG
6HR MIN TEMP:  30; 6HR MAX TEMP:  31; 6HR PCP:  0.11;

CAIRO*         CLOUDY    34  29  80 E8        30.36F WCI  28
EFFINGHAM*     LGT SNOW  26  24  89 CALM      30.39S
MARION         MIX PCPN  32  30  93 CALM      30.37R
MT. VERNON     CLOUDY    28  25  86 CALM      30.37S
CENTRALIA*     LGT SNOW  27  26  93 CALM      30.37S
SALEM*         LGT SNOW  29  27  92 CALM      30.38S
METROPOLIS*    DRIZZLE   32  29  88 CALM      30.37R
$$

ILZ067-068-072-073-078-083-087-091-011300-
SOUTHEAST ILLINOIS

CITY           SKY/WX    TMP DP  RH WIND       PRES   REMARKS
LAWRENCEVILLE  LGT SNOW  29  27  92 N5        30.39R VSB 1   WCI  24
FLORA*         LGT SNOW  27  27  99 CALM      30.38S
FAIRFIELD*     LGT SNOW  31  31  98 CALM      30.37S
HARRISBURG*    MIX PCPN  32  28  83 E6        30.37S WCI  26
ROBINSON*      LGT SNOW  27  27  99 CALM      30.40S
CARMI*         LGT RAIN  33  32  94 CALM      30.37S
$$

ABBREVIATIONS USED IN REMARKS
   TC - TEMPERATURE IN CELSIUS
  WCI - WIND CHILL INDEX
   HX - HEAT INDEX
  VSB - VISIBILITY
$$




USA.gov is the U.S. government's official web portal to all federal, state and local government web resources and services.